Regional Weather Roundup
Issued by NWS Nashville, TN

Home | Current Version | Previous Version | Text Only | Print | Product List | Glossary On
Versions: 1 2 3 4 5 6 7 8 9 10 11 12 13 14 15 16 17 18 19 20 21 22 23 24 25 26 27 28 29 30 31 32 33 34 35 36 37 38 39 40 41 42 43 44 45 46 47 48 49 50
000
ASUS44 KOHX 300410
RWROHX
MIDDLE TENNESSEE HOURLY WEATHER ROUNDUP
NATIONAL WEATHER SERVICE NASHVILLE TN
1100 PM CDT WED JUL 29 2015

NOTE: "FAIR" INDICATES FEW OR NO CLOUDS BELOW 12,000 FEET WITH
NO SIGNIFICANT WEATHER AND/OR OBSTRUCTIONS TO VISIBILITY.

* THESE REPORTS ARE NOT UNDER NWS QUALITY CONTROL AND MAY NOT
  REPORT WEATHER SUCH AS PRECIPITATION AND FOG.


TNZ005>011-023>034-057-059-062>066-078-080-300500
...NORTHERN MIDDLE TENNESSEE...

CITY           SKY/WX    TMP DP  RH WIND       PRES   REMARKS
CLARKSVILLE    CLOUDY    75  72  90 W5        30.04S
CROSSVILLE     LGT RAIN  77  68  73 N20G36    30.13R
DICKSON        CLOUDY    73  72  94 CALM      30.05R
NASHVILLE      MOCLDY    82  72  71 NE9       30.05R
ROCKWOOD       PTCLDY    78  73  84 NW7       30.09S
SMYRNA         PTCLDY    83  73  71 E6        30.05R
$$
TNZ056-058-060-061-075>077-079-093>097-300500
...SOUTHERN MIDDLE TENNESSEE...

CITY           SKY/WX    TMP DP  RH WIND       PRES   REMARKS
COLUMBIA       PTCLDY    81  75  83 CALM      30.04R
LEWISBURG      PTCLDY    79  77  94 CALM      30.04R
MCMINNVILLE    MOCLDY    79  73  83 N17       30.08R
SHELBYVILLE    CLEAR     81  79  94 CALM      30.05R
TULLAHOMA      CLEAR     81  75  83 CALM      30.07R
WINCHESTER     CLEAR     79  75  89 CALM      30.05R
$$


...KEY TO REMARKS...
VSB - VISIBILITY IN MILES
WCI - WIND CHILL INDEX
HX  - HEAT INDEX



USA.gov is the U.S. government's official web portal to all federal, state and local government web resources and services.